Weather History for London, United Kingdom

Change the Weather History Date:

Sunday, November 4, 2012

  Actual Average Record
Temperature  
Mean Temperature 41 °F -  
Max Temperature 48 °F 49 °F 64 °F (2010)
Min Temperature 34 °F 39 °F 32 °F (2006)
Degree Days  
Heating Degree Days 24    
Moisture  
Dew Point 38 °F    
Average Humidity 91    
Maximum Humidity 100    
Minimum Humidity 81    
Precipitation  
Precipitation 0.55 in - - ()
Sea Level Pressure  
Sea Level Pressure 29.35 in    
Wind  
Wind Speed 6 mph ()    
Max Wind Speed 25 mph    
Max Gust Speed -    
Visibility 5.4 miles    
Events Rain    
Averages and records for this station are not official NWS values.
T = Trace of Precipitation, MM = Missing Value Source: Averaged Metar Reports

Daily Weather History Graph

Daily Weather History Graph

Search for Another Location

Airport:

Trip Planner

Search our weather history database for the weather conditions in past years. The results will help you decide how hot, cold, wet, or windy it might be!

Date:

Astronomy

Nov. 04, 2012 Rise Set
Actual Time 7:01 AM GMT 4:28 PM GMT
Civil Twilight 6:25 AM GMT 5:04 PM GMT
Nautical Twilight 5:45 AM GMT 5:44 PM GMT
Astronomical Twilight 5:07 AM GMT 6:22 PM GMT
Moon 8:45 PM GMT (11/4) 11:44 AM GMT (11/4)
Length of Visible Light 10h 38m
Length of Day
9h 27m
Waning Gibbous, 74% of the Moon is Illuminated
Nov 4
Waning Gibbous
Nov 7
Last Quarter
Nov 13
New
Nov 20
First Quarter
Nov 28
Full

Hourly Weather History & Observations

Time (GMT) Temp. Windchill Dew Point Humidity Pressure Visibility Wind Dir Wind Speed Gust Speed Precip Events Conditions
12:20 AM 35.6 °F - 33.8 °F 93% 29.50 in - SSE 2.3 mph - N/A   Clear
12:50 AM 35.6 °F - 33.8 °F 93% 29.50 in 4.3 mi SE 2.3 mph - N/A   Unknown
1:20 AM 35.6 °F - 33.8 °F 93% 29.50 in 3.7 mi East 2.3 mph - N/A   Unknown
1:50 AM 35.6 °F 32.8 °F 33.8 °F 93% 29.47 in 3.1 mi Variable 3.5 mph - N/A   Unknown
2:20 AM 35.6 °F 32.8 °F 33.8 °F 93% 29.47 in 3.7 mi East 3.5 mph - N/A   Unknown
2:50 AM 38 °F - 36 °F 90% 29.47 in 6 mi East 5.8 mph - -   Light Haze
2:50 AM 35.6 °F 32.8 °F 33.8 °F 93% 29.44 in - East 3.5 mph - N/A   Clear
3:20 AM 37.4 °F 33.8 °F 35.6 °F 93% 29.44 in 6.2 mi ENE 4.6 mph - N/A   Partly Cloudy
3:50 AM 39.2 °F 37.0 °F 37.4 °F 93% 29.44 in 6.2 mi ENE 3.5 mph - N/A   Scattered Clouds
4:20 AM 39.2 °F 37.0 °F 37.4 °F 93% 29.42 in 6.2 mi East 3.5 mph - N/A   Partly Cloudy
4:50 AM 41.0 °F 36.4 °F 37.4 °F 87% 29.42 in 6.2 mi East 6.9 mph - N/A Rain Light Rain
5:20 AM 41.0 °F 36.4 °F 39.2 °F 93% 29.42 in 5.0 mi SE 6.9 mph - N/A Rain Rain
5:50 AM 41 °F - 40 °F 92% 29.39 in 4 mi East 4.6 mph - - Rain Rain
5:50 AM 41.0 °F 37.1 °F 39.2 °F 93% 29.39 in 4.3 mi ESE 5.8 mph - N/A Rain Rain
6:20 AM 41.0 °F 35.8 °F 39.2 °F 93% 29.36 in 6.2 mi ENE 8.1 mph - N/A Rain Light Rain
6:50 AM 41.0 °F 35.8 °F 39.2 °F 93% 29.33 in 5.6 mi ENE 8.1 mph - N/A Rain Rain
7:20 AM 41.0 °F 34.7 °F 41.0 °F 100% 29.30 in 3.1 mi ENE 10.4 mph - N/A Rain Rain
7:50 AM 42.8 °F 37.0 °F 41.0 °F 93% 29.30 in 2.8 mi ENE 10.4 mph - N/A Rain Heavy Rain
8:20 AM 42.8 °F 36.6 °F 41.0 °F 93% 29.24 in 5.0 mi ENE 11.5 mph - N/A Rain Rain
8:50 AM 43 °F - 42 °F 94% 29.19 in 3 mi ENE 12.7 mph - - Rain Rain
8:50 AM 42.8 °F 35.8 °F 41.0 °F 93% 29.18 in 2.5 mi ENE 13.8 mph - N/A Rain Rain
9:20 AM 44.6 °F 38.8 °F 42.8 °F 93% 29.18 in 5.6 mi East 11.5 mph - N/A Rain Rain
9:50 AM 44.6 °F 39.7 °F 42.8 °F 93% 29.15 in 6.2 mi East 9.2 mph - N/A   Mostly Cloudy
10:20 AM 44.6 °F 42.2 °F 42.8 °F 93% 29.15 in 6.2 mi NE 4.6 mph - N/A Rain Rain
10:50 AM 46.4 °F 43.5 °F 44.6 °F 93% 29.12 in 6.2 mi NNE 5.8 mph - N/A Rain Light Rain
11:20 AM 46.4 °F 44.3 °F 44.6 °F 93% 29.15 in 6.2 mi North 4.6 mph - N/A   Mostly Cloudy
11:50 AM 48 °F - 44 °F 81% 29.16 in 22 mi West 4.6 mph - - Rain Rain
11:50 AM 48.2 °F - 44.6 °F 87% 29.15 in 6.2 mi WNW 5.8 mph - N/A   Mostly Cloudy
12:20 PM 44.6 °F 36.1 °F 42.8 °F 93% 29.18 in 6.2 mi West 21.9 mph - N/A   Mostly Cloudy
12:50 PM 42.8 °F 33.1 °F 41.0 °F 93% 29.21 in 6.2 mi West 25.3 mph - N/A   Mostly Cloudy
1:20 PM 41.0 °F 31.1 °F 37.4 °F 87% 29.24 in 6.2 mi West 23.0 mph - N/A   Mostly Cloudy
1:50 PM 41.0 °F 31.1 °F 37.4 °F 87% 29.27 in 6.2 mi West 23.0 mph - N/A   Mostly Cloudy
2:20 PM 41.0 °F 32.5 °F 39.2 °F 93% 29.30 in 6.2 mi West 17.3 mph - N/A   Mostly Cloudy
2:50 PM 42 °F - 38 °F 81% 29.33 in 22 mi West 12.7 mph - -   Overcast
2:50 PM 41.0 °F 33.1 °F 39.2 °F 93% 29.33 in 6.2 mi West 15.0 mph - N/A   Mostly Cloudy
3:20 PM 41.0 °F 33.9 °F 37.4 °F 87% 29.33 in 6.2 mi West 12.7 mph - N/A   Mostly Cloudy
3:50 PM 41.0 °F 35.2 °F 37.4 °F 87% 29.36 in 6.2 mi WNW 9.2 mph - N/A   Mostly Cloudy
4:20 PM 41.0 °F 35.8 °F 37.4 °F 87% 29.36 in 6.2 mi WNW 8.1 mph - N/A   Mostly Cloudy
4:50 PM 41.0 °F 35.2 °F 37.4 °F 87% 29.36 in 6.2 mi West 9.2 mph - N/A   Mostly Cloudy
5:20 PM 41.0 °F 35.8 °F 37.4 °F 87% 29.39 in 6.2 mi West 8.1 mph - N/A   Mostly Cloudy
5:50 PM 40 °F - 36 °F 82% 29.40 in 25 mi West 5.8 mph - -   Mostly Cloudy
5:50 PM 41.0 °F 35.8 °F 37.4 °F 87% 29.39 in 6.2 mi West 8.1 mph - N/A   Scattered Clouds
6:20 PM 41.0 °F 36.4 °F 35.6 °F 81% 29.42 in 6.2 mi West 6.9 mph - N/A   Partly Cloudy
6:50 PM 39.2 °F 34.2 °F 35.6 °F 87% 29.39 in 6.2 mi West 6.9 mph - N/A   Partly Cloudy
7:20 PM 37.4 °F 33.8 °F 35.6 °F 93% 29.42 in 6.2 mi West 4.6 mph - N/A   Partly Cloudy
7:50 PM 39.2 °F 35.9 °F 35.6 °F 87% 29.42 in 6.2 mi West 4.6 mph - N/A   Partly Cloudy
8:20 PM 37.4 °F - 35.6 °F 93% 29.42 in 5.0 mi Variable 2.3 mph - N/A   Partly Cloudy
8:50 PM 37 °F - 36 °F 92% 29.43 in 9 mi NW 1.2 mph - -   Scattered Clouds
8:50 PM 39.2 °F - 35.6 °F 87% 29.42 in 5.6 mi WNW 2.3 mph - N/A   Partly Cloudy
9:20 PM 39.2 °F 35.9 °F 35.6 °F 87% 29.44 in 5.0 mi West 4.6 mph - N/A   Partly Cloudy
9:50 PM 39.2 °F 37.0 °F 37.4 °F 93% 29.44 in 5.6 mi WNW 3.5 mph - N/A   Unknown
10:20 PM 39.2 °F - 37.4 °F 93% 29.44 in - NNW 2.3 mph - N/A   Clear
10:50 PM 39.2 °F - 35.6 °F 87% 29.44 in - North 2.3 mph - N/A   Clear
11:20 PM 37.4 °F 34.9 °F 35.6 °F 93% 29.44 in 4.3 mi North 3.5 mph - N/A   Unknown
11:50 PM 34 °F - 33 °F 96% 29.48 in 3 mi West 2.3 mph - -   Mist
11:50 PM 35.6 °F 32.8 °F 33.8 °F 93% 29.47 in 2.5 mi Variable 3.5 mph - N/A   Mist